Location: ????????
(48.5306°N, 37.8224°E)
Time: 02:23:59
(UTC+00:00)

Daily predictions for brighter satellites

Satellite Brightness Start Highest point End
(mag) Time Altitude Azimuth Time Altitude Azimuth Time Altitude Azimuth
Cosmos 1703 3.4 00:00:36 14° S 00:03:59 73° E 00:07:55 10° NNE
Gblst 52 Del rocket 4.4 00:07:14 10° WNW 00:13:01 72° NNE 00:18:29 10° E
Cosmos 292 Rocket 3.8 00:09:41 14° SSW 00:13:47 88° ESE 00:18:37 10° NNE
NPP 4.3 00:09:33 10° N 00:14:39 44° WNW 00:19:05 13° SW
Cosmos 2084 Rocket 4.1 00:12:47 12° WSW 00:16:00 40° NW 00:19:38 10° NNE
USA 306 3.7 00:12:42 10° W 00:16:45 47° NNW 00:20:48 10° ENE
Cosmos 2369 Rocket 2.1 00:11:33 10° NNW 00:17:10 80° WSW 00:22:45 10° SSE
USA 307 3.7 00:16:06 10° W 00:20:10 49° NNW 00:24:16 10° ENE
USA 215 4.5 00:14:32 10° ENE 00:20:37 43° N 00:26:43 10° WNW
SL-16 R/B 2.6 00:16:08 14° SW 00:20:59 54° NW 00:26:34 10° NNE
IRS-1D 3.7 00:16:16 10° NNE 00:21:39 80° ESE 00:26:56 10° SSW
Cosmos 614 Rocket 4.3 00:17:38 10° NW 00:22:35 45° WSW 00:27:30 10° S
Cosmos 2251 Rocket 3.5 00:18:47 10° NNW 00:24:02 70° WSW 00:29:16 10° SSE
Cosmos 2228 3.1 00:21:10 10° NNW 00:25:30 61° W 00:29:46 10° S
ERBS 3.8 00:23:37 10° W 00:26:18 27° NNW 00:29:00 10° NE
Cosmos 1656 Rocket 3.6 00:21:33 10° NNW 00:27:00 82° WSW 00:32:25 10° SSE
COSMOS 2455 2.9 00:21:40 13° SW 00:27:13 87° NW 00:33:17 10° NE
EO 1 Del DPAF 3.6 00:24:54 10° N 00:28:15 43° WNW 00:31:12 13° SW
Meteor 1-28 Rocket 4.3 00:28:44 12° SSW 00:31:33 27° W 00:34:46 10° NW
Cosmos 2058 Rocket 4.0 00:28:35 10° N 00:32:53 50° ENE 00:37:07 10° SSE
Cosmos 1536 Rocket 4.4 00:30:54 12° SW 00:34:37 36° WNW 00:38:43 10° N
Nadezhda 1 Rocket 4.4 00:30:28 10° SSW 00:36:34 50° WNW 00:42:41 10° N
COSMOS 2441 4.4 00:33:18 10° N 00:38:11 72° WNW 00:42:59 10° SSW
MSX 4.0 00:33:23 10° N 00:39:06 65° WNW 00:44:48 10° SSW
Cosmos 1603 4.1 00:38:51 10° SSW 00:44:24 65° ESE 00:50:02 10° NNE
Cosmos 1408 3.8 00:43:17 10° SSE 00:46:44 42° E 00:50:11 10° NNE
Cosmos 1455 4.3 00:48:55 10° WNW 00:50:19 12° W 00:51:43 10° WSW
USA 308 4.0 00:46:57 10° W 00:50:57 42° N 00:54:57 10° ENE
Cosmos 1271 Rocket 4.2 00:51:19 10° NW 00:54:08 20° W 00:56:57 10° SW
Cosmos 1606 Rocket 4.0 00:52:06 10° NNW 00:56:19 44° W 01:00:28 10° SSW
CZ-2D R/B 3.9 00:53:28 10° NNW 00:57:11 19° NW 01:00:51 10° W
ALOS 2.8 00:53:25 10° NNE 00:58:04 60° E 01:02:40 10° S
CZ-2C R/B 3.0 00:54:14 10° NNE 00:59:20 61° E 01:04:17 10° S
Cosmos 2366 rocket 4.0 00:54:49 10° NNW 01:00:58 76° W 01:07:08 10° S
Cosmos 2341 Rocket 4.3 00:55:01 10° NNW 01:01:12 54° W 01:07:23 10° SSW
